Location: Castelbiague
(43.0361°N, 0.9246°E)
Time: 10:07:28
(UTC+00:00)

Cosmos 1975 Rocket - Pass Details

Date: 17 June 2021
Orbit: 604 x 633 km, 82.5° (Epoch: 01 August)

Event Time Altitude Azimuth Distance (km) Brightness Sun altitude
Exits shadow 21:34:49 - 207° (SSW) 2,172 5.6 -15.9°
Reaches altitude 10° 21:35:22 10° 209° (SSW) 1,959 5.4 -16.0°
Maximum altitude 21:39:31 45° 282° (WNW) 845 4.1 -16.4°
Drops below altitude 10° 21:43:45 10° 356° (N) 1,992 6.6 -16.8°
Sets 21:46:05 0° 3° (N) 2,908 7.5 -17.0°
